[[{"header":{"parameterUnit":"m.s-1","parameterCategory":1,"la1":30.2991,"la2":30.254,"lo1":-89.0895,"lo2":-89.0444,"dy":0.0017,"dx":0.0017,"nx":28,"ny":28,"refTime":"2023-09-28T21:00:00:Z","depth":0,"parameterNumber":2,"parameterNumberName":"U-component_of_WINDS"},"data":[0,0,0,0,0,0,0,0,0,0,0,0,0,0,0,0,0,0,0,0,0,0,0,0,0,0,0,0,0,0,0,0,0,0,0,0,0,0,0,0,0,0,0,0,0,0,0,0,0,0,0,0,0,0,0,0,0,0,-5.2091,-5.2091,0,-5.2119,-5.2119,-5.2119,-5.2017,-5.2014,-5.2011,-5.2008,-5.2038,-5.2042,-5.2045,0,0,0,0,0,0,0,0,0,0,0,0,0,-5.1951,-5.1954,-5.2091,-5.2091,-5.2092,-5.2119,-5.2119,-5.2119,-5.2018,-5.2014,-5.2011,-5.2007,-5.2037,-5.2041,-5.2046,0,0,0,0,0,0,0,0,0,0,0,0,0,-5.1999,-5.1955,-5.2091,-5.2044,-5.204,-5.2119,-5.2119,-5.212,-5.2019,-5.2014,-5.201,-5.2005,-5.2036,-5.2041,-5.2046,-5.2171,0,0,-5.2063,-5.2065,0,0,0,0,0,0,0,0,-5.1996,-5.2004,-5.2051,-5.2048,-5.2043,-5.206,-5.2081,-5.2137,-5.202,-5.2027,-5.2008,-5.2003,-5.2049,-5.2053,-5.2069,-5.2173,-5.2174,-5.2064,-5.2067,-5.2069,-5.2071,0,0,0,0,0,0,0,-5.1993,-5.2002,-5.2102,-5.2052,-5.2047,-5.2022,-5.2024,-5.2091,-5.2064,-5.2026,-5.2019,-5.2023,-5.2046,-5.2064,-5.2069,-5.2174,-5.2063,-5.2068,-5.2072,-5.2074,-5.2384,-5.2388,0,0,0,0,0,0,-5.1996,-5.2,-5.2101,-5.2103,-5.2008,-5.2029,-5.203,-5.2059,-5.2062,-5.2059,-5.2027,-5.2018,-5.2057,-5.2062,-5.2069,-5.2217,-5.2069,-5.2074,-5.2077,-5.2379,-5.2385,-5.239,0,0,0,0,0,0,-5.1993,-5.2006,-5.21,-5.205,-5.206,-5.2036,-5.2069,-5.2062,-5.2079,-5.2063,-5.2058,-5.205,-5.2053,-5.2062,-5.2147,-5.2216,-5.2077,-5.2082,-5.2373,-5.2381,-5.2388,-5.2513,0,0,0,0,0,0,-5.199,-5.2005,-5.2052,-5.2051,-5.2063,-5.2177,-5.2073,-5.2066,-5.2089,-5.2078,-5.2083,-5.208,-5.205,-5.2139,-5.2152,-5.2221,-5.2086,-5.2367,-5.2376,-5.2385,-5.2502,-5.2524,-5.2542,0,0,0,0,0,-5.1985,-5.2087,-5.2055,-5.2068,-5.2121,-5.2181,-5.2188,-5.2152,-5.2095,-5.2142,-5.2132,-5.2079,-5.2206,-5.2149,-5.2163,-5.2235,-5.2362,-5.2374,-5.2384,-5.2494,-5.252,-5.2541,0,0,0,0,0,0,-5.2097,-5.2086,-5.2051,-5.2155,-5.217,-5.2164,-5.2223,-5.218,-5.2212,-5.22,-5.2154,-5.2156,-5.225,-5.225,-5.2186,-5.2356,-5.2275,-5.2289,-5.2353,-5.2377,-5.2397,-5.2395,-5.209,0,0,0,0,0,-5.2134,-5.2183,-5.2171,-5.2264,-5.2273,-5.2247,-5.2272,-5.2243,-5.2256,-5.2262,-5.2258,-5.2274,-5.2317,-5.2347,-5.2386,-5.2501,-5.2502,-5.2558,-5.2577,-5.2594,-5.2607,-5.267,-5.2695,-5.2427,-5.2427,-5.2427,0,0,-5.221,-5.221,-5.2244,-5.2286,-5.2294,-5.2348,-5.2253,-5.2313,-5.2352,-5.2271,-5.2352,-5.235,-5.2364,-5.2466,-5.251,-5.2469,-5.2681,-5.2608,-5.2621,-5.2626,-5.2684,-5.2709,-5.2732,-5.2435,-5.2433,-5.2432,0,0,-5.2377,-5.2382,-5.246,-5.247,-5.2484,-5.2465,-5.2485,-5.2485,-5.2481,-5.2561,-5.2502,-5.2548,-5.2623,-5.2636,-5.2653,-5.2825,-5.2779,-5.2839,-5.2943,-5.3004,-5.3025,-5.3044,-5.3107,-5.313,-5.2852,-5.2853,-5.2853,0,-5.2471,-5.2548,-5.2506,-5.2571,-5.2591,-5.252,-5.26,-5.2612,-5.2638,-5.2654,-5.2607,-5.2701,-5.2706,-5.281,-5.2852,-5.2867,-5.2889,-5.2839,-5.3026,-5.3044,-5.3061,-5.312,-5.3144,-5.286,-5.2859,-5.2858,-5.2858,0,-5.2663,-5.2718,-5.278,-5.2807,-5.2834,-5.2906,-5.2876,-5.2908,-5.2877,-5.2864,-5.2947,-5.295,-5.2989,-5.3011,-5.2981,-5.3112,-5.3086,-5.3033,-5.2951,-5.3094,-5.315,-5.3172,-5.2871,-5.2868,-5.2866,-5.2864,0,0,-5.2902,-5.2905,-5.2929,-5.294,-5.295,-5.2991,-5.306,-5.3098,-5.3128,-5.3148,-5.3205,-5.3271,-5.3223,-5.3242,-5.3212,-5.3266,-5.3404,-5.3206,-5.3206,-5.3245,-5.355,-5.3591,-5.3618,-5.3373,-5.3377,-5.338,-5.355,0,-5.3068,-5.3185,-5.315,-5.3269,-5.3319,-5.3252,-5.3312,-5.3325,-5.3315,-5.3357,-5.3345,-5.3393,-5.3325,-5.3336,-5.3386,-5.3377,-5.3465,-5.3364,-5.3427,-5.343,-5.3427,-5.3647,-5.369,-5.385,-5.3571,-5.3575,-5.3577,0,-5.3276,-5.3305,-5.3429,-5.3431,-5.345,-5.3505,-5.3537,-5.3578,-5.3591,-5.358,-5.3602,-5.3561,-5.363,-5.3546,-5.364,-5.3572,-5.3596,-5.3595,-5.3601,-5.3606,-5.3514,-5.3661,-5.39,-5.3925,-5.3611,-5.3608,-5.3605,0,-5.344,-5.3509,-5.3593,-5.3605,-5.3608,-5.3649,-5.3652,-5.3661,-5.3686,-5.3714,-5.3731,-5.3767,-5.3787,-5.3816,-5.3787,-5.3728,-5.3887,-5.38,-5.3881,-5.3882,-5.3918,-5.3917,-5.4167,-5.3931,-5.3931,-5.393,-5.393,0,-5.363,-5.3709,-5.3667,-5.3718,-5.3805,-5.3763,-5.385,-5.3846,-5.3855,-5.3905,-5.3849,-5.3897,-5.3855,-5.39,-5.3877,-5.396,-5.3969,-5.3963,-5.3956,-5.3969,-5.397,-5.3985,-5.3974,-5.3937,-5.3935,-5.3934,-5.3933,0,-5.3828,-5.3803,-5.389,-5.3886,-5.3887,-5.3952,-5.3949,-5.3997,-5.3982,-5.4046,-5.4059,-5.4037,-5.4087,-5.406,-5.4112,-5.4097,-5.4204,-5.4182,-5.42,-5.4195,-5.4278,-5.4271,-5.4548,-5.4582,-5.4323,-5.4325,-5.4328,0,-5.3951,-5.401,-5.4013,-5.4043,-5.405,-5.4098,-5.4124,-5.4085,-5.4114,-5.4134,-5.418,-5.4225,-5.4259,-5.4342,-5.4331,-5.4371,-5.435,-5.4444,-5.4356,-5.4367,-5.4354,-5.4351,-5.4358,-5.4463,-5.4466,-5.4468,-5.447,0,-5.4173,-5.4158,-5.4197,-5.4232,-5.4264,-5.4289,-5.431,-5.4338,-5.43,-5.4335,-5.4385,-5.4412,-5.4465,-5.4511,-5.4545,-5.4549,-5.4505,-5.4498,-5.4519,-5.4533,-5.4542,-5.454,-5.4251,-5.4492,-5.449,-5.4488,-5.4487,-5.4486,-5.4339,-5.4389,-5.4399,-5.4444,-5.4456,-5.4477,-5.4522,-5.4513,-5.4554,-5.4594,-5.4569,-5.4629,-5.4641,-5.4682,-5.4692,-5.4739,-5.4702,-5.4732,-5.474,-5.4748,-5.476,-5.4534,-5.4745,-5.4744,-5.4744,-5.4743,-5.4743,0,-5.4559,-5.4562,-5.4604,-5.4636,-5.4672,-5.4625,-5.4646,-5.468,-5.4733,-5.4748,-5.4783,-5.4841,-5.4886,-5.4878,-5.4919,-5.4958,-5.4939,-5.497,-5.4968,-5.497,-5.4791,-5.4769,-5.4985,-5.4985,-5.4985,-5.4985,-5.4985,-5.4985,-5.4678,-5.4761,-5.4747,-5.4835,-5.4837,-5.4895,-5.4911,-5.4931,-5.4943,-5.5011,-5.5047,-5.5042,-5.5048,-5.5089,-5.5128,-5.5125,-5.5144,-5.5183,-5.5173,-5.5006,-5.4982,-5.4959,-5.4939,-5.5187,-5.5188,-5.5348,-5.535,-5.5351]},{"header":{"parameterUnit":"m.s-1","parameterCategory":1,"la1":30.2991,"la2":30.254,"lo1":-89.0895,"lo2":-89.0444,"dy":0.0017,"dx":0.0017,"nx":28,"ny":28,"refTime":"2023-09-28T21:00:00:Z","depth":0,"parameterNumber":3,"parameterNumberName":"V-component_of_WINDS"},"data":[0,0,0,0,0,0,0,0,0,0,0,0,0,0,0,0,0,0,0,0,0,0,0,0,0,0,0,0,0,0,0,0,0,0,0,0,0,0,0,0,0,0,0,0,0,0,0,0,0,0,0,0,0,0,0,0,0,0,-0.6987,-0.6989,0,-0.7172,-0.7174,-0.7176,-0.7237,-0.7236,-0.7235,-0.7234,-0.7428,-0.7434,-0.744,0,0,0,0,0,0,0,0,0,0,0,0,0,-0.669,-0.6695,-0.6987,-0.6989,-0.6991,-0.7172,-0.7174,-0.7177,-0.7237,-0.7236,-0.7235,-0.7234,-0.7426,-0.7433,-0.744,0,0,0,0,0,0,0,0,0,0,0,0,0,-0.6841,-0.6696,-0.6986,-0.7043,-0.705,-0.7171,-0.7174,-0.7177,-0.7237,-0.7236,-0.7235,-0.7234,-0.7424,-0.7432,-0.7441,-0.7521,0,0,-0.7468,-0.7472,0,0,0,0,0,0,0,0,-0.6832,-0.6852,-0.7032,-0.7039,-0.7047,-0.718,-0.7141,-0.7293,-0.7237,-0.7166,-0.7234,-0.7233,-0.7347,-0.7362,-0.74,-0.753,-0.7538,-0.7469,-0.7475,-0.7478,-0.7481,0,0,0,0,0,0,0,-0.6822,-0.6844,-0.706,-0.7035,-0.7044,-0.7061,-0.7081,-0.717,-0.7261,-0.7172,-0.7177,-0.7198,-0.7351,-0.7391,-0.7405,-0.7541,-0.7469,-0.7477,-0.7482,-0.7486,-0.7748,-0.775,0,0,0,0,0,0,-0.6801,-0.6835,-0.7054,-0.7066,-0.6935,-0.7067,-0.709,-0.7139,-0.726,-0.7278,-0.7199,-0.72,-0.7376,-0.7394,-0.7412,-0.7515,-0.7478,-0.7487,-0.7492,-0.7747,-0.7749,-0.7751,0,0,0,0,0,0,-0.6795,-0.682,-0.7047,-0.6952,-0.6982,-0.7073,-0.7128,-0.7143,-0.7183,-0.728,-0.7298,-0.7223,-0.7376,-0.7399,-0.7493,-0.7523,-0.7491,-0.7499,-0.7745,-0.7747,-0.775,-0.7721,0,0,0,0,0,0,-0.6786,-0.6817,-0.6848,-0.6952,-0.6987,-0.7124,-0.713,-0.7148,-0.7198,-0.7201,-0.7307,-0.7324,-0.7377,-0.748,-0.7502,-0.7534,-0.7506,-0.7743,-0.7746,-0.7749,-0.772,-0.7722,-0.7724,0,0,0,0,0,-0.6775,-0.6833,-0.6849,-0.6875,-0.7026,-0.7126,-0.7146,-0.7204,-0.72,-0.7232,-0.7295,-0.7321,-0.7515,-0.7489,-0.7515,-0.755,-0.7741,-0.7745,-0.7749,-0.7719,-0.7722,-0.7724,0,0,0,0,0,0,-0.6731,-0.6847,-0.6867,-0.6959,-0.7032,-0.7136,-0.7178,-0.7205,-0.7282,-0.7282,-0.7352,-0.7376,-0.7466,-0.7517,-0.7486,-0.7634,-0.763,-0.7639,-0.7598,-0.7602,-0.7604,-0.7591,-0.7513,0,0,0,0,0,-0.6731,-0.6801,-0.69,-0.6972,-0.7007,-0.7086,-0.7132,-0.717,-0.7249,-0.7281,-0.735,-0.7427,-0.7505,-0.7556,-0.7633,-0.7726,-0.7752,-0.7763,-0.7766,-0.7767,-0.7775,-0.7831,-0.7838,-0.7763,-0.7763,-0.7763,0,0,-0.6734,-0.6806,-0.6847,-0.6965,-0.7026,-0.7099,-0.7112,-0.7187,-0.7243,-0.7293,-0.7387,-0.744,-0.753,-0.7625,-0.767,-0.767,-0.7801,-0.7772,-0.7772,-0.778,-0.7836,-0.7843,-0.7849,-0.7765,-0.7765,-0.7764,0,0,-0.6777,-0.6837,-0.6906,-0.6966,-0.7058,-0.711,-0.7126,-0.7226,-0.7263,-0.7357,-0.7397,-0.7464,-0.7597,-0.7661,-0.771,-0.7777,-0.7805,-0.78,-0.7813,-0.7866,-0.7872,-0.7878,-0.7905,-0.7913,-0.7807,-0.7807,-0.7807,0,-0.677,-0.6879,-0.6938,-0.7012,-0.7064,-0.711,-0.7181,-0.7237,-0.735,-0.7386,-0.7384,-0.7553,-0.7617,-0.7728,-0.7744,-0.7782,-0.7805,-0.779,-0.7866,-0.7873,-0.7879,-0.7906,-0.7915,-0.7806,-0.7806,-0.7806,-0.7806,0,-0.6867,-0.6943,-0.6987,-0.7094,-0.715,-0.7222,-0.7293,-0.7344,-0.7377,-0.7429,-0.7526,-0.7604,-0.7699,-0.7728,-0.7761,-0.7845,-0.7843,-0.7852,-0.785,-0.7884,-0.7911,-0.7921,-0.7804,-0.7805,-0.7805,-0.7805,0,0,-0.689,-0.7027,-0.7043,-0.7093,-0.7197,-0.7258,-0.7332,-0.7424,-0.7467,-0.7543,-0.7609,-0.772,-0.773,-0.7787,-0.7827,-0.7874,-0.7925,-0.7879,-0.7882,-0.7888,-0.8026,-0.802,-0.8031,-0.7943,-0.7945,-0.7946,-0.8019,0,-0.6949,-0.7084,-0.7138,-0.7248,-0.732,-0.7365,-0.743,-0.7502,-0.7553,-0.7622,-0.7679,-0.7758,-0.7763,-0.7798,-0.7846,-0.7909,-0.7955,-0.7904,-0.8008,-0.8011,-0.7988,-0.8044,-0.8039,-0.8104,-0.803,-0.8031,-0.8033,0,-0.7037,-0.7113,-0.7229,-0.7326,-0.7358,-0.7416,-0.7506,-0.757,-0.7653,-0.7687,-0.7749,-0.7788,-0.787,-0.7858,-0.7974,-0.7938,-0.7984,-0.8021,-0.8025,-0.804,-0.8027,-0.8065,-0.8126,-0.8137,-0.8049,-0.8048,-0.8046,0,-0.7046,-0.7177,-0.7264,-0.7305,-0.7419,-0.7459,-0.7509,-0.759,-0.7642,-0.772,-0.7756,-0.7842,-0.789,-0.7957,-0.8019,-0.8004,-0.813,-0.8123,-0.8163,-0.8161,-0.819,-0.8188,-0.8264,-0.8213,-0.8213,-0.8213,-0.8212,0,-0.7108,-0.7179,-0.727,-0.7324,-0.7405,-0.7467,-0.7546,-0.7599,-0.7671,-0.7738,-0.778,-0.7842,-0.7918,-0.799,-0.8038,-0.8128,-0.8149,-0.818,-0.8193,-0.8179,-0.8175,-0.8213,-0.8211,-0.8215,-0.8215,-0.8214,-0.8214,0,-0.7134,-0.7197,-0.7296,-0.7395,-0.7422,-0.7478,-0.7564,-0.7619,-0.7671,-0.7755,-0.7778,-0.7861,-0.7948,-0.8014,-0.8127,-0.816,-0.8257,-0.8268,-0.8229,-0.8236,-0.8274,-0.8271,-0.8379,-0.8398,-0.833,-0.8331,-0.8331,0,-0.7171,-0.7227,-0.7332,-0.7379,-0.7428,-0.7503,-0.7557,-0.7619,-0.7674,-0.7772,-0.7816,-0.7906,-0.7982,-0.8119,-0.819,-0.8277,-0.8294,-0.8325,-0.8308,-0.8292,-0.8299,-0.8297,-0.8304,-0.8329,-0.833,-0.833,-0.833,0,-0.7232,-0.7261,-0.7336,-0.7422,-0.7484,-0.7555,-0.7627,-0.7663,-0.7739,-0.7798,-0.7887,-0.7945,-0.8061,-0.8151,-0.8245,-0.8298,-0.8328,-0.8334,-0.8349,-0.8337,-0.8314,-0.8331,-0.8239,-0.8333,-0.8333,-0.8332,-0.8332,-0.8332,-0.7268,-0.732,-0.7403,-0.7485,-0.7545,-0.7611,-0.7669,-0.7728,-0.7802,-0.7901,-0.7933,-0.8026,-0.8109,-0.8239,-0.8292,-0.8367,-0.8368,-0.8388,-0.8394,-0.8399,-0.84,-0.8298,-0.8384,-0.8384,-0.8384,-0.8384,-0.8384,0,-0.7335,-0.739,-0.7464,-0.7563,-0.7628,-0.7648,-0.7729,-0.7783,-0.7863,-0.7937,-0.801,-0.8114,-0.8201,-0.8278,-0.8369,-0.8414,-0.8431,-0.8437,-0.8436,-0.8449,-0.8392,-0.8372,-0.8422,-0.8422,-0.8422,-0.8422,-0.8422,-0.8422,-0.7377,-0.7468,-0.7506,-0.7627,-0.7682,-0.7773,-0.7817,-0.788,-0.7939,-0.8052,-0.8125,-0.8173,-0.825,-0.8347,-0.8428,-0.8449,-0.8482,-0.8486,-0.851,-0.8457,-0.8452,-0.8448,-0.843,-0.8491,-0.8491,-0.8561,-0.8562,-0.8562]}]]